Location: Canyon City
(32.5951°N, 116.5278°W)
Time: 01:49:38
(UTC+00:00)

SL-16 R/B - Pass Details

Date: 08 September 2024
Orbit: 842 x 845 km, 71.0° (Epoch: 10 October)

Event Time Altitude Azimuth Distance (km) Brightness Sun altitude
Rises 12:58:05 0° 320° (NW) 3,405 5.1 -6.6°
Reaches altitude 10° 13:01:13 10° 303° (WNW) 2,466 4.2 -6.0°
Maximum altitude 13:05:01 19° 260° (W) 1,915 3.4 -5.2°
Drops below altitude 10° 13:08:50 10° 217° (SW) 2,456 4.2 -4.4°
Sets 13:11:58 0° 200° (SSW) 3,386 5.0 -3.7°
